FENGYUN 1C DEB, 30010

Orbit data source: Space-Track

FENGYUN 1C DEB, 30010 is space debris in SSO originally from a launch on Mon, 10 May 1999 UTC launched from the Taiyaun Space Center, China (TSC). Fengyun 1C debris stems from the Chinese weather satellite Fengyun-1C, which was intentionally destroyed by a Chinese anti-satellite missile in 2007. This event dramatically increased the amount of space debris, with thousands of trackable fragments posing hazards to satellites and human spaceflight. The Fengyun 1C debris cloud has become a focal point in discussions about space sustainability and the need for international regulations to prevent the creation of new debris.

Loading next visibility...
Identifier
30010, 1999-025MK
Orbit
SSO
Country
Flag of CNCN / PRC
Related business
Manufacturer
Unknown
Mission
Spacecraft
Bus & Motor
Unknown
Mass
Unknown
Launch date (UTC)
1999-05-10 (27 years ago)
Launch vehicle
Unknown
Launch site
Taiyaun Space Center, China (TSC)
Object type
Payload
Rocket body
Debris
Shape & HBR
Unknown shape, 0.2 m
Radar Cross Section
Medium (>0.1 m² and <1 m²)

Expand to show TLE details & history
Last TLE update: 10 hours ago

TLE from 10 hours ago
0 FENGYUN 1C DEB
1 30010U 99025MK  26038.12256941  .00000277  00000-0  13439-3 0  9997
2 30010  99.0705 237.1626 0073803  48.4546  75.6268 14.25030480990633
Epoch: 2026-02-07T02:56Z
TLE epoch observation values (Epoch: 2026-02-07T02:56:29.997Z)
Latitude
54.18479°
Longitude
-111.50068°
Altitude
804.467 km
Speed
7.463 km/s
True Right ascension
04h 39m 29s
True Declination
54° 01' 21"
Sunlit
Object was in daylight at epoch
Visualization orbit readout
Latitude
Unknown
Longitude
Unknown
Altitude
Unknown
Speed
Unknown
Apparent Right ascension
Unknown
Apparent Declination
Unknown
Sunlit
N/A
Visualization observer readout
Local Sidereal Time
14:57:30
Azimuth
Unknown
Elevation
Unknown
Doppler factor
Unknown
Orbital elements
Apogee altitude
858.577 km
Perigee altitude
752.542 km
Semi-major axis
7,183.696 km
Eccentricity
0.00738
Inclination
99.0705°
RAAN
237.1626°
Arg. of periapsis
48.4546°
True anomaly
76.4479°
Mean anomaly
75.6268°
Eccentric anomaly
76.03717°
Mean motion
3.56469 °/min
Orbital period
100.99 mins
BSTAR
0.00013439
Loading maneuver chart data...
Computing Atmospheric mass density...

Documentation

Showing up to 5 results
|